Chatawa, MS

10:44 PM CST on February 12, 2016 (GMT -0600)
McComb-Pike County-Lewis

Weather History for KMCB - January, 2015

Change the Weather History Date:

Friday, January 9, 2015

  Actual Average Record
Temperature  
Mean Temperature 33 °F -  
Max Temperature 36 °F 55 °F 80 °F (1957)
Min Temperature 30 °F 36 °F 14 °F (1979)
Degree Days  
Heating Degree Days 32    
Moisture  
Dew Point 23 °F    
Average Humidity 66    
Maximum Humidity 79    
Minimum Humidity 54    
Precipitation  
Precipitation 0.05 in - - ()
Sea Level Pressure  
Sea Level Pressure 30.43 in    
Wind  
Wind Speed 5 mph (North)    
Max Wind Speed 9 mph    
Max Gust Speed -    
Visibility 10 miles    
Events Rain    
Averages and records for this station are not official NWS values.
T = Trace of Precipitation, MM = Missing Value Source: NWS Daily Summary

Daily Weather History Graph

Daily Weather History Graph

Search for Another Location

Airport or City:

Trip Planner

Search our weather history database for the weather conditions in past years. The results will help you decide how hot, cold, wet, or windy it might be!

Date:

Astronomy

Jan. 09, 2015 Rise Set
Actual Time 7:01 AM CST 5:16 PM CST
Civil Twilight 6:35 AM CST 5:43 PM CST
Nautical Twilight 6:05 AM CST 6:13 PM CST
Astronomical Twilight 5:35 AM CST 6:42 PM CST
Moon 9:32 PM CST (1/9) 9:34 AM CST (1/9)
Length of Visible Light 11h 08m
Length of Day
10h 15m
Waning Gibbous, 82% of the Moon is Illuminated
Jan 9
Waning Gibbous
Jan 13
Last Quarter
Jan 20
New
Jan 26
First Quarter
Feb 3
Full

Hourly Weather History & Observations

Time (CST) Temp. Windchill Dew Point Humidity Pressure Visibility Wind Dir Wind Speed Gust Speed Precip Events Conditions
12:53 AM 30.9 °F - 21.9 °F 69% 30.37 in 10.0 mi Calm Calm - N/A   Overcast
1:53 AM 32.0 °F 26.4 °F 21.0 °F 64% 30.38 in 10.0 mi NW 5.8 mph - N/A   Overcast
2:53 AM 33.1 °F 28.7 °F 21.0 °F 61% 30.38 in 10.0 mi NW 4.6 mph - N/A   Overcast
3:53 AM 33.1 °F 27.7 °F 19.9 °F 59% 30.37 in 10.0 mi North 5.8 mph - N/A   Overcast
4:53 AM 34.0 °F 28.8 °F 19.0 °F 54% 30.39 in 10.0 mi NW 5.8 mph - N/A   Overcast
5:53 AM 32.0 °F 27.5 °F 23.0 °F 69% 30.40 in 10.0 mi North 4.6 mph - 0.00 in Rain Light Rain
6:53 AM 33.1 °F 26.9 °F 21.9 °F 64% 30.42 in 10.0 mi North 6.9 mph - 0.00 in   Overcast
7:53 AM 33.1 °F 27.7 °F 21.0 °F 61% 30.44 in 10.0 mi NNW 5.8 mph - N/A   Overcast
8:53 AM 32.0 °F 26.4 °F 26.1 °F 79% 30.47 in 6.0 mi North 5.8 mph - 0.03 in   Overcast
9:53 AM 33.1 °F 28.7 °F 26.1 °F 75% 30.47 in 10.0 mi NNE 4.6 mph - 0.02 in Rain Light Rain
10:53 AM 33.1 °F 28.7 °F 26.1 °F 75% 30.46 in 10.0 mi NNE 4.6 mph - 0.00 in   Overcast
11:53 AM 34.0 °F 28.8 °F 24.1 °F 67% 30.44 in 10.0 mi NNE 5.8 mph - N/A   Overcast
12:53 PM 35.1 °F 31.0 °F 24.1 °F 64% 30.41 in 10.0 mi Variable 4.6 mph - N/A   Overcast
1:53 PM 35.1 °F 31.0 °F 25.0 °F 67% 30.40 in 10.0 mi NNE 4.6 mph - 0.00 in   Overcast
2:53 PM 36.0 °F 29.0 °F 23.0 °F 59% 30.41 in 10.0 mi North 9.2 mph - N/A   Overcast
3:53 PM 36.0 °F 29.6 °F 24.1 °F 62% 30.43 in 10.0 mi North 8.1 mph - N/A   Overcast
4:53 PM 36.0 °F 30.3 °F 25.0 °F 64% 30.44 in 10.0 mi NNW 6.9 mph - N/A   Overcast
5:53 PM 35.1 °F 31.0 °F 26.1 °F 70% 30.45 in 10.0 mi NNW 4.6 mph - N/A   Scattered Clouds
6:53 PM 35.1 °F 30.1 °F 27.0 °F 72% 30.47 in 10.0 mi NNW 5.8 mph - N/A   Mostly Cloudy
7:53 PM 34.0 °F 29.8 °F 28.0 °F 79% 30.48 in 10.0 mi NNW 4.6 mph - N/A   Mostly Cloudy
8:53 PM 35.1 °F 30.1 °F 26.1 °F 70% 30.48 in 10.0 mi North 5.8 mph - N/A   Overcast
9:53 PM 35.1 °F 29.3 °F 21.9 °F 59% 30.49 in 10.0 mi North 6.9 mph - N/A   Overcast
10:53 PM 34.0 °F 28.0 °F 21.0 °F 59% 30.48 in 10.0 mi North 6.9 mph - N/A   Clear
11:53 PM 33.1 °F 27.7 °F 21.0 °F 61% 30.48 in 10.0 mi North 5.8 mph - N/A   Clear